Resultados

600 Electronico
Fecha Serie Viento Presin Humedad Temperatura
01-11-2019 Final_A
Puesto N Andanivel Nombre Dia Mes Ao Pais Marca
01 Duckardt Ezequiel Maximiliano 19 1 2004 BA 1.26.73
02 Mateo Duran 10 6 2004 FAM 1.28.51
03 Castillo Molina Benjamin 14 9 2005 SF 1.29.33
04 Migueles Lautaro Nahuel 23 7 2004 FAM 1.29.73
05 Badio Ignacio Antonio 9 10 2005 SF 1.30.46
06 Leandro Cardenas 2 9 2004 FAM 1.30.78
07 Vivas Ivan 16 10 2004 BA 1.30.84
08 Peralta Olivero Jeronimo Pedro 12 1 2004 COR 1.31.28
09 Marchetti Santino 5 8 2004 BA 1.31.87
10 Canete Martiniano 14 8 2004 LRI 1.32.41
11 Valenzuela Walter Uriel 10 8 2004 ER 1.32.56
12 Lopez Rodrigo 10 8 2004 FAM 1.32.77
13 Romero Nicolas 6 10 2004 BA 1.33.23
14 Bordón Franco David 14 12 2005 LRI 1.34.18
15 Gutierrez Jonatan Emanuel 20 06 2004 CAT 1.35.04
16 Ramirez Cendra Benjamín 1 2 2006 ER 1.35.43
17 Rocco Lucas 18 3 2004 COR 1.35.49
18 Lemir Felipe 12 05 2004 MZA 1.36.55
19 Marchesin Lucas 19 10 2005 COR 1.36.72
20 Enrique Ramiro Fernandez 20 1 2005 SJ 1.37.02
21 Ricardí Kevin 31 5 2005 - 1.37.85
22 Silvera Picot Agustin 13 7 2004 - 1.39.40
23 Casas Romero Jorge Agustin 29 6 2004 LRI 1.40.38
24 Eros Agustin Gimenez 5 11 2004 SF 1.40.51
25 Saucedo Eduardo Sebastian 28 3 2005 CTS 1.43.14
26 Fernandez Mafut Francisco Jesus 19 2 2005 CHA 1.47.49
27 Paez Axel 25 2 2005 SJ 1.48.76
28 Sobredo Augusto 3 3 2005 CTS 1.54.09
29 PEnsa Enzo 18 07 2005 LPA 1.54.78
30 Ruarte Bruno 13 10 2006 SJ 1.55.35
31 Espinola Dylan Jamal 30 1 2004 CTS 1.59.68
99 Montivero Gamboa Elías Lorenzo 16 2 2004 SJ DNS